San Juan, PR

9:43 AM AST on October 17, 2017 (GMT -0400)
Luis Munoz Marin International

Weather History for TJSJ - November, 2010

Change the Weather History Date:

Wednesday, November 24, 2010

  Actual Average Record
Temperature  
Mean Temperature 79 °F 80 °F  
Max Temperature 83 °F 85 °F 93 °F (1981)
Min Temperature 75 °F 75 °F 66 °F (1956)
Degree Days  
Heating Degree Days 0 0  
Month to date heating degree days 0 0  
Since 1 July heating degree days 0 0  
Cooling Degree Days 14 15  
Month to date cooling degree days 366 378  
Year to date cooling degree days 5527 5337  
Growing Degree Days 28 (Base 50)    
Moisture  
Dew Point 66 °F    
Average Humidity 62    
Maximum Humidity 69    
Minimum Humidity 55    
Precipitation  
Precipitation 0.00 in 0.20 in 3.87 in (1977)
Month to date precipitation 7.89 5.23  
Year to date precipitation 81.97 50.21  
Snow  
Snow 0.00 in 0.00 in - ()
Month to date snowfall 0.0 0.0  
Since 1 July snowfall 0.0 0.0  
Since 1 September snowfall 0.0 0.0  
Snow Depth 0.00 in    
Sea Level Pressure  
Sea Level Pressure 29.93 in    
Wind  
Wind Speed 13 mph (East)    
Max Wind Speed 22 mph    
Max Gust Speed 26 mph    
Visibility 10 miles    
Events      
T = Trace of Precipitation, MM = Missing Value Source: NWS Daily Summary

Daily Weather History Graph

Daily Weather History Graph

Search for Another Location

Airport or City:

Trip Planner

Search our weather history database for the weather conditions in past years. The results will help you decide how hot, cold, wet, or windy it might be!

Date:

Astronomy

Nov. 24, 2010 Rise Set
Actual Time 6:35 AM AST 5:45 PM AST
Civil Twilight 6:12 AM AST 6:08 PM AST
Nautical Twilight 5:45 AM AST 6:35 PM AST
Astronomical Twilight 5:19 AM AST 7:02 PM AST
Moon 8:34 PM AST (11/24) 9:11 AM AST (11/24)
Length of Visible Light 11h 56m
Length of Day
11h 10m
Waning Gibbous, 90% of the Moon is Illuminated
Nov 24
Waning Gibbous
Nov 28
Last Quarter
Dec 5
New
Dec 13
First Quarter
Dec 21
Full

Hourly Weather History & Observations

Time (AST) Temp. Heat Index Dew Point Humidity Pressure Visibility Wind Dir Wind Speed Gust Speed Precip Events Conditions
12:56 AM 79.0 °F - 66.9 °F 66% 29.93 in 10.0 mi East 13.8 mph 26.5 mph N/A   Mostly Cloudy
1:56 AM 78.1 °F - 66.9 °F 68% 29.92 in 10.0 mi East 12.7 mph 21.9 mph N/A   Mostly Cloudy
2:56 AM 79.0 °F - 66.0 °F 64% 29.91 in 10.0 mi ENE 17.3 mph 25.3 mph N/A   Mostly Cloudy
3:56 AM 78.1 °F - 64.0 °F 62% 29.90 in 10.0 mi East 16.1 mph 24.2 mph N/A   Mostly Cloudy
4:56 AM 77.0 °F - 64.9 °F 66% 29.91 in 10.0 mi East 11.5 mph - N/A   Scattered Clouds
5:56 AM 77.0 °F - 64.0 °F 64% 29.92 in 10.0 mi East 16.1 mph 20.7 mph N/A   Scattered Clouds
6:56 AM 75.9 °F - 62.1 °F 62% 29.94 in 10.0 mi East 12.7 mph - N/A   Scattered Clouds
7:56 AM 79.0 °F - 64.9 °F 62% 29.95 in 10.0 mi East 11.5 mph - N/A   Partly Cloudy
8:56 AM 80.1 °F 82.7 °F 68.0 °F 67% 29.96 in 10.0 mi ENE 13.8 mph 19.6 mph N/A   Scattered Clouds
9:56 AM 82.0 °F 83.8 °F 64.9 °F 56% 29.98 in 10.0 mi East 17.3 mph 25.3 mph N/A   Scattered Clouds
10:56 AM 82.0 °F 85.5 °F 69.1 °F 65% 29.98 in 10.0 mi ENE 16.1 mph - N/A   Scattered Clouds
11:56 AM 82.0 °F 84.9 °F 68.0 °F 62% 29.96 in 10.0 mi East 18.4 mph - N/A   Scattered Clouds
12:56 PM 82.9 °F 86.5 °F 69.1 °F 63% 29.93 in 10.0 mi ENE 19.6 mph 25.3 mph N/A   Scattered Clouds
1:56 PM 81.0 °F 83.3 °F 66.9 °F 62% 29.91 in 10.0 mi East 17.3 mph - N/A   Scattered Clouds
2:56 PM 82.0 °F 84.5 °F 66.9 °F 60% 29.90 in 10.0 mi ENE 17.3 mph 23.0 mph N/A   Partly Cloudy
3:56 PM 80.1 °F 82.1 °F 66.0 °F 62% 29.90 in 10.0 mi ENE 16.1 mph - N/A   Scattered Clouds
4:56 PM 80.1 °F 81.9 °F 64.9 °F 60% 29.91 in 10.0 mi ENE 12.7 mph - N/A   Partly Cloudy
5:56 PM 77.0 °F - 64.0 °F 64% 29.91 in 10.0 mi East 9.2 mph - N/A   Partly Cloudy
6:56 PM 77.0 °F - 64.0 °F 64% 29.93 in 10.0 mi East 9.2 mph - N/A   Partly Cloudy
7:56 PM 78.1 °F - 64.0 °F 62% 29.94 in 10.0 mi East 9.2 mph - N/A   Scattered Clouds
8:56 PM 78.1 °F - 64.9 °F 64% 29.95 in 10.0 mi ESE 3.5 mph - N/A   Scattered Clouds
9:56 PM 77.0 °F - 66.0 °F 69% 29.96 in 10.0 mi East 6.9 mph - N/A   Scattered Clouds
10:56 PM 77.0 °F - 64.9 °F 66% 29.97 in 10.0 mi ESE 5.8 mph - N/A   Scattered Clouds
11:56 PM 75.9 °F - 64.9 °F 69% 29.96 in 10.0 mi SE 3.5 mph - N/A   Scattered Clouds